Hourly Data Report for January 30, 2021

CARBERRY CS
MANITOBA
Current Station Operator: ECCC - MSC

49°54'20.900" N
99°21'26.800" W
383.50 m
5010547
71170
WZE

Download Data

Hourly Data (January 2021)
Hourly Data Report for January 30, 2021
TIME
LST
Temp Definition
°C
Dew Point Definition
°C
Rel Hum Definition
%
Precip. Amount Definition
mm

Wind Dir Definition
10's deg

Wind Spd Definition
km/h
Visibility Definition
km
Stn Press Definition
kPa
Hmdx Definition


Wind Chill Definition


Weather Definition


00:00 -7.5 -7.6 99 0.0 12 13   96.75   -13 LegendNANA
01:00 -7.4 -7.5 100 0.0 10 10   96.73   -12 LegendNANA
02:00 -7.4 -7.5 100 0.0 10 11   96.71   -12 LegendNANA
03:00 -7.5 -7.6 99 0.0 10 10   96.73   -12 LegendNANA
04:00 -7.4 -7.5 100 0.0 10 8   96.71   -11 LegendNANA
05:00 -7.3 -7.3 100 0.0 9 9   96.71   -12 LegendNANA
06:00 -7.2 -7.2 100 0.0 9 6   96.76   -10 LegendNANA
07:00 -7.2 -7.2 100 0.0 9 6   96.80   -10 LegendNANA
08:00 -7.0 -7.1 100 0.0 7 5   96.81   -10 LegendNANA
09:00 -6.8 -6.8 100 0.0 7 4   96.86   -9 LegendNANA
10:00 -6.5 -6.6 99 0.0 7 4   96.93   -8 LegendNANA
11:00 -6.0 -6.1 100 0.0 6 2   96.97   -7 LegendNANA
12:00 -6.0 -6.0 99 0.0 35 3   97.01   -7 LegendNANA
13:00 -6.0 -6.1 99 0.0 36 5   97.01   -8 LegendNANA
14:00 -6.2 -6.4 98 0.0 1 6   97.04   -9 LegendNANA
15:00 -6.1 -6.4 98 0.0 1 5   97.06   -9 LegendNANA
16:00 -5.9 -6.1 98 0.0 4 4   97.14   -8 LegendNANA
17:00 -5.9 -6.1 99 0.0 2 3   97.19   -7 LegendNANA
18:00 -6.1 -6.3 99 0.0 33 2   97.24   -7 LegendNANA
19:00 -6.3 -6.4 99 0.0 32 3   97.28   -8 LegendNANA
20:00 -6.9 -7.1 98 0.0 33 3   97.33   -8 LegendNANA
21:00 -6.7 -6.8 99 0.0 32 3   97.35   -8 LegendNANA
22:00 -6.9 -7.1 98 0.0 30 4   97.35   -9 LegendNANA
23:00 -7.1 -7.4 98 0.0 32 3   97.40   -9 LegendNANA

Notes on Data Quality.

Legend

  • E = Estimated
  • M = Missing
  • NA = Not Available*
  • [empty] = Indicates an unobserved value
Date modified: